User: anonymous   Login
Location: Mississauga
(43.5802°N, 79.6166°W)
Time: 00:04:01
(UTC-04:00)
Language:

Cosmos 1437 Rocket - Orbit

View from above orbital plane
View from above orbital plane
View from above satellite
View from above satellite

Ground track
Ground track

The orbit data is extracted from the following two-line orbital elements,

1 13771U 83003B   16118.60181309  .00000506  00000-0  29757-4 0  9993
2 13771  81.1422 122.0570 0040334 298.6025  61.1144 15.09236403811091
Epoch (UTC): 27 April 2016 14:26:36
Eccentricity: 0.0040334
inclination: 81.1422°
perigee height: 510 km
apogee height: 566 km
right ascension of ascending node: 122.0570°
argument of perigee: 298.6025°
revolutions per day: 15.09236403
mean anomaly at epoch: 61.1144°
orbit number at epoch: 81109

The dashed part of the orbit path shows where the satellite is in the earth's shadow,  

DLR